Location: Bess�ges
(44.2923°N, 4.0966°E)
Time: 21:28:15
(UTC+00:00)

Daily predictions for brighter satellites

Satellite Brightness Start Highest point End
(mag) Time Altitude Azimuth Time Altitude Azimuth Time Altitude Azimuth
Cosmos 372 Rocket 4.0 17:58:41 10° S 18:03:53 68° ESE 18:09:05 10° NNE
Cosmos 1707 3.0 18:02:04 10° N 18:05:47 45° ENE 18:09:28 10° SSE
CZ-2C R/B 3.4 18:04:15 10° SW 18:06:41 16° SSW 18:09:00 10° SSE
NOSS 3-2 (C) 4.4 17:59:42 10° NNW 18:06:51 48° NE 18:14:54 10° ESE
Cosmos 1844 4.3 18:04:21 10° S 18:09:29 36° ESE 18:14:35 10° NE
ISS -2.5 18:07:17 10° W 18:10:28 37° NNW 18:13:39 10° NE
NOSS 3-4 (A) 4.4 18:06:25 10° SSE 18:10:53 23° ESE 18:15:32 10° ENE
NOSS 3-4 (C) 4.4 18:06:33 10° SSE 18:11:01 23° ESE 18:15:37 10° ENE
USA 186 3.9 18:11:23 10° E 18:12:38 12° ENE 18:13:54 10° NE
Meteor 1-12 Rocket 4.4 18:07:38 10° S 18:13:22 55° E 18:18:59 10° NNE
Cosmos 1300 Rocket 3.7 18:14:27 10° S 18:18:43 53° E 18:23:04 10° NNE
Okean 1 Rocket 4.4 18:18:51 10° SE 18:22:08 20° E 18:25:26 10° NE
Sich 1 Rocket 3.7 18:18:31 10° S 18:23:03 86° WNW 18:27:37 10° N
Cosmos 2298 Rocket 4.0 18:19:52 10° S 18:25:09 71° ESE 18:30:29 10° NNE
CENTAUR R/B 3.4 18:18:07 10° NNW 18:26:01 58° NE 18:34:38 10° SE
Cosmos 1833 Rocket 4.4 18:23:39 10° N 18:27:09 16° NE 18:30:12 11° ENE
CSL-04 Debris 4.1 18:24:10 10° SSE 18:29:31 71° ENE 18:34:54 10° N
Helios 1A Rocket 4.4 18:27:31 10° S 18:31:24 40° W 18:35:20 10° NNW
CSL-04 Rocket 3.7 18:26:04 10° SSE 18:31:29 71° ENE 18:36:59 10° N
ATLAS 2AS CENTAUR R/B 3.5 18:26:07 10° S 18:33:09 37° ESE 18:40:15 10° NE
Okean 2 Rocket 3.0 18:28:46 10° S 18:33:15 78° E 18:37:44 10° N
YAOGAN 1 2.8 18:29:47 10° S 18:34:06 75° WSW 18:38:27 10° NNW
Cosmos 1025 Rocket 3.0 18:30:51 10° N 18:35:15 71° E 18:39:38 10° SSE
ATLAS 3B R/B 3.8 18:32:07 10° NNW 18:37:55 28° NE 18:42:35 15° E
Cosmos 1513 Rocket 4.5 18:34:29 10° S 18:40:45 88° E 18:46:56 10° N
Abrixas rocket 2.2 18:37:59 10° WNW 18:40:47 52° NNE 18:42:11 24° E
CREW DRAGON DEMO-1 DEB 3.3 18:39:54 10° NW 18:42:51 45° NNE 18:44:16 25° E
Cosmos 1536 Rocket 3.5 18:40:35 10° N 18:45:02 67° E 18:49:29 10° SSE
Cosmos 1125 Rocket 3.5 18:40:33 10° S 18:45:48 66° ESE 18:51:05 10° NNE
SJ-6B 3.8 18:48:31 23° E 18:49:29 26° ENE 18:52:41 10° NNE
CZ-4 R/B 3.0 18:47:50 10° SSW 18:51:47 38° W 18:55:42 10° NNW
SJ-11-01 4.3 18:48:02 10° SSE 18:52:44 83° WSW 18:57:28 10° NNW
Cosmos 2150 Rocket 4.3 18:47:22 10° SSW 18:52:45 75° WNW 18:58:14 10° NNE
CZ-2C R/B 3.5 18:48:28 10° S 18:53:47 70° WSW 18:59:26 10° NNW
Cosmos 1464 Rocket 4.2 18:48:00 10° SSW 18:54:06 77° W 19:00:20 10° N
USA 238 DEB 4.0 18:48:07 10° NW 18:55:22 80° SW 19:02:54 10° SSE
USA 238 4.0 18:48:13 10° NW 18:55:29 81° SW 19:03:01 10° SSE
Cosmos 2285 Rocket 3.9 18:50:15 10° S 18:56:28 66° ESE 19:02:46 10° NNE
Cosmos 1674 2.7 18:53:35 10° N 18:57:24 59° E 19:00:17 16° SSE
Cosmos 2026 Rocket 4.5 18:52:13 10° N 18:58:10 40° ENE 19:02:16 19° SE
Cosmos 1092 Rocket 4.1 18:52:26 10° N 18:58:26 51° ENE 19:04:17 11° SSE
FREGAT/IRIS 4.4 19:04:41 16° NNE 19:04:41 16° NNE 19:05:30 10° NNE
MOS 1 Rocket 3.1 18:59:33 10° N 19:03:56 85° WNW 19:08:12 10° SSW
TSX-5 4.0 19:04:05 10° S 19:07:43 52° ESE 19:12:20 10° NE
ARGOS 3.1 19:04:00 10° SSE 19:09:22 86° WSW 19:14:47 10° NNW
Cosmos 1340 Rocket 4.2 19:15:11 23° NE 19:15:11 23° NE 19:17:06 10° NNE
CZ-2C R/B 2.8 19:08:46 10° NNE 19:14:15 56° E 19:19:46 10° S
Cosmos 1733 3.2 19:13:47 33° SSE 19:15:10 53° E 19:18:55 10° NNE
Cosmos 2151 Rocket 4.5 19:11:38 10° SSW 19:15:58 52° WNW 19:20:24 10° N
MOS 1 4.3 19:13:05 22° SE 19:16:48 61° ENE 19:22:26 10° N
Lacrosse 5 rocket 3.6 19:15:48 10° NNW 19:18:46 17° N 19:20:43 14° NE
Cosmos 2082 Rocket 3.5 19:16:07 10° N 19:20:30 23° NE 19:21:17 22° ENE
Shenzhou-11 Module 4.2 19:20:17 10° WSW 19:20:33 12° SW 19:20:33 12° SW
BREEZE-M DEB (TANK) 3.5 19:19:32 10° WNW 19:22:52 59° SSW 19:27:36 25° SE
BREEZE-M R/B 4.1 19:11:56 10° WSW 19:22:57 71° NNW 19:24:25 34° NE
DMSP B5D2-2 4.1 19:18:52 10° NNE 19:24:06 58° E 19:29:17 10° S
Cosmos 494 Rocket 4.3 19:20:27 10° NNW 19:25:41 67° WSW 19:29:53 16° S
Meteor 1-15 Rocket 4.5 19:20:59 10° SSW 19:26:37 72° WNW 19:32:23 10° N
Cosmos 1805 3.3 19:23:10 10° SSW 19:27:04 75° W 19:31:00 10° N
OBJECT-B 2.6 19:28:48 22° NNE 19:28:48 22° NNE 19:30:14 10° N
Ariane Rocket 2.9 19:28:06 24° SSE 19:31:15 90° W 19:36:22 10° NNW
SL-08 RB Rocket 3.9 19:27:52 17° S 19:31:20 70° WSW 19:35:53 10° NNW
Milstar 3 Cent rocket 4.0 19:27:24 10° SW 19:31:38 17° S 19:32:39 16° S
H-2A R/B 3.3 19:28:10 10° SSW 19:32:49 39° W 19:37:37 10° NNW
USA 234 4.2 19:38:13 27° SSE 19:38:13 27° SSE 19:42:01 10° S
Cosmos 1269 Rocket 3.9 19:32:19 10° NNW 19:37:41 87° ENE 19:39:33 42° SSE
Cosmos 1626 2.4 19:38:59 10° N 19:42:02 58° N 19:42:02 58° N
MetOp-A 4.0 19:40:20 34° SSE 19:42:46 89° WSW 19:48:09 10° NNW
USA 186 2.9 19:42:34 39° WSW 19:42:56 41° W 19:46:04 10° NNW
Cosmos 1844 Rocket 4.3 19:40:54 10° WSW 19:45:57 34° NW 19:51:03 10° N
COSMOS 2406 3.1 19:41:13 10° NNW 19:46:54 71° ENE 19:47:55 57° ESE
ISS -1.7 19:45:10 10° NW 19:47:46 22° N 19:47:46 22° N
Cosmos 2278 Rocket 2.8 19:44:16 10° S 19:51:32 40° NE 19:55:20 10° NNE
Lacrosse 4 Rocket 3.0 19:50:38 10° N 19:52:52 24° NNE 19:52:52 24° NNE
Meteor 1-22 Rocket 4.3 19:48:33 10° S 19:54:27 84° W 20:00:34 10° N
Meteor 2-5 Rocket 4.2 19:51:34 10° NNW 19:57:10 61° W 20:00:46 23° SSW
Meteor 1-24 Rocket 3.8 19:53:56 10° NNW 19:59:32 75° W 20:01:37 41° S
Okean 1 Rocket 4.5 19:55:33 10° SW 19:59:45 39° WNW 20:03:58 10° N
NOSS 3-4 (A) 3.7 19:55:15 10° SW 20:01:08 66° NW 20:07:26 10° NNE
NOSS 3-4 (C) 3.7 19:55:21 10° SW 20:01:13 66° NW 20:07:32 10° NNE
Resurs 01 Rocket 2.6 20:03:26 39° NNE 20:03:26 39° NNE 20:06:23 10° N
SL-14 R/B 4.0 19:58:43 10° NNW 20:01:55 51° NW 20:01:55 51° NW
Meteor 2-19 Rocket 4.3 19:57:39 10° N 20:03:44 63° ENE 20:03:47 63° E
Cosmos 1833 Rocket 2.6 20:06:18 10° NNW 20:11:54 82° NE 20:11:54 82° NE
Cosmos 2251 Rocket 4.2 20:09:38 10° NNW 20:13:44 45° NNE 20:13:44 45° NNE
CENTAUR R/B 4.0 20:09:04 10° NW 20:16:48 45° WSW 20:21:59 23° S
ARIANE 5 R/B 4.5 20:20:05 22° N 20:20:05 22° N 20:21:45 10° N
SPOT 3 Rocket 3.7 20:20:50 70° W 20:20:50 70° W 20:25:47 10° NNW
ATLAS 2AS CENTAUR R/B 3.4 20:16:02 10° SW 20:23:54 62° NW 20:31:42 10° NNE
ATLAS 3B R/B 2.6 20:22:28 10° NW 20:29:24 85° SW 20:29:50 79° S
Cosmos 1655 Rocket 4.1 20:32:11 10° N 20:37:50 73° N 20:37:50 73° N
Lacrosse 5 rocket 3.9 20:54:44 10° NW 20:56:20 20° NNW 20:56:20 20° NNW
Cosmos 2082 Rocket 3.3 20:59:30 10° NNW 21:03:08 40° NW 21:03:08 40° NW
Terra 4.5 21:21:44 14° N 21:21:44 14° N 21:22:23 10° N
Cosmos 2278 Rocket 4.1 21:33:01 23° WNW 21:34:15 25° NW 21:38:54 10° N
